STARLINK-11179, 60190

Orbit data source: Space-Track

STARLINK-11179, 60190 is a payload satellite owned by SpaceX/Seattle (US) in LEO that was launched on Wed, 03 Jul 2024 UTC via an FALCON 9 launch vehicle from the Air Force Eastern Test Range (AFETR). Payload-class satellites include a variety of spacecraft equipped with specific instruments for various scientific and technological missions. These include communications satellites like Starlink; space stations such as the ISS; scientific satellites like the Hubble; Earth observation satellites from companies like Planet Labs, Umbra, and HawkEye 360; GPS; miniature CubeSats for education and research; and military/defense satellites.

Loading next visibility...
Identifier
60190, 2024-124H
Orbit
LEO
Country
Flag of USUS
Related business
Manufacturer
SpaceX/Seattle
Mission
Operational Commercial Communications
Bus & Motor
STARLINK V2MD, Unknown motor
Mass
960 kg wet, ~910 kg dry
Launch date (UTC)
2024-07-03 (1 year ago)
Launch vehicle
FALCON 9
Launch site
Air Force Eastern Test Range (AFETR)
Object type
Payload
Rocket body
Debris
Shape & HBR
Box + 2 Pan, 18.1 m
Radar Cross Section
36.964 m², Large (>1 m²)

Expand to show TLE details & history
Last TLE update: 8 hours ago

TLE from 8 hours ago
0 STARLINK-11179
1 60190U 24124H   25292.93637802 -.00003646  00000-0 -25272-4 0  9990
2 60190  53.1586 135.3783 0000749 102.7621 257.3481 15.69691610 74426
Epoch: 2025-10-19T22:28Z
TLE epoch observation values (Epoch: 2025-10-19T22:28:23.060Z)
Latitude
-0.00002°
Longitude
129.63631°
Altitude
360.805 km
Speed
7.694 km/s
True Right ascension
09h 01m 30s
True Declination
0° 00' 00"
Sunlit
Object was in daylight at epoch
Visualization orbit readout
Latitude
Unknown
Longitude
Unknown
Altitude
Unknown
Speed
Unknown
Apparent Right ascension
Unknown
Apparent Declination
Unknown
Sunlit
N/A
Visualization observer readout
Local Sidereal Time
01:15:39
Azimuth
Unknown
Elevation
Unknown
Doppler factor
Unknown
Orbital elements
Apogee altitude
360.545 km
Perigee altitude
359.536 km
Semi-major axis
6,738.177 km
Eccentricity
0.00007
Inclination
53.1586°
RAAN
135.3783°
Arg. of periapsis
102.7621°
True anomaly
257.33973°
Mean anomaly
257.3481°
Eccentric anomaly
257.34391°
Mean motion
3.924 °/min
Orbital period
91.74 mins
BSTAR
-0.000025272
Loading maneuver chart data...
Computing Atmospheric mass density...
Loading historical data...
Loading historical data...
Loading historical data...
Loading historical data...
Loading historical data...
Loading historical data...
Loading historical data...

Documentation

Showing up to 5 results
|